Location: Austin
(30.3000°N, 97.7500°W)
Time: 08:35:49
(UTC-05:00)

GP-B - Pass Details

Date: 19 September 2023
Orbit: 628 x 630 km, 89.8° (Epoch: 25 September)

Event Time Altitude Azimuth Distance (km) Brightness Sun altitude
Rises 06:20:41 0° 179° (S) 2,903 6.4 -13.0°
Reaches altitude 10° 06:22:53 10° 180° (S) 1,999 5.6 -12.6°
Maximum altitude 06:27:17 81° 267° (W) 641 3.0 -11.6°
Drops below altitude 10° 06:31:43 10° 355° (N) 2,009 5.7 -10.7°
Sets 06:33:56 0° 357° (N) 2,920 6.6 -10.2°
